• Join FlightAware (Why Join?)
  • Login
  • US Flag 
01:29AM EDT


 

Airport Tracker/Info


-or-


 

Live Flight TrackerFlight Track Log ✈ ACA7033 ✈ 20-Dec-2013 ✈ KRDU - KTPA

Flight Track Log - Related Links

Times and Time Zones

All times are in EST time to prevent confusion due to time zone crossing. See the ACA7033 flight status page for this flight to view local times or setup timezone preferences in your user account.

Time Position Orientation Groundspeed Altitude Reporting Facility
EST Latitude Longitude Course Direction KTS MPH feet Rate Location/Type
10:48PM 35.8561 -78.8108 195° South 157 181 1,300  Level Washington Center
10:48PM 35.8225 -78.8222 195° South 178 205 3,300 2,760 Climbing Washington Center
10:49PM 35.7542 -78.8042 168° South 265 305 6,400 2,880 Climbing Washington Center
10:50PM 35.7108 -78.7869 162° South 275 316 8,600 2,820 Climbing Washington Center
10:51PM 35.6322 -78.7558 162° South 286 329 11,500 3,180 Climbing Washington Center
10:52PM 35.5333 -78.7136 161° South 325 374 15,000 3,060 Climbing Washington Center
10:53PM 35.4458 -78.7000 173° South 349 402 17,700 2,700 Climbing Washington Center
10:54PM 35.3358 -78.6856 174° South 359 413 20,400 2,400 Climbing Washington Center
10:55PM 35.2297 -78.6689 173° South 372 428 22,600 2,160 Climbing Washington Center
10:56PM 35.1239 -78.6519 173° South 385 443 24,800 2,280 Climbing Washington Center
10:57PM 35.0133 -78.6503 179° South 391 450 27,200 2,040 Climbing Washington Center
10:58PM 34.9103 -78.6769 192° South 386 444 29,000 1,440 Climbing Washington Center
10:59PM 34.8150 -78.7314 205° Southwest 379 436 30,100 1,200 Climbing Washington Center
11:02PM 34.5764 -78.8958 210° Southwest 406 467 33,300 1,320 Climbing Jacksonville Center
11:03PM 34.4806 -78.9683 212° Southwest 411 473 34,800 1,440 Climbing Jacksonville Center
11:04PM 34.3844 -79.0356 210° Southwest 411 473 36,200 1,260 Climbing Jacksonville Center
11:05PM 34.3014 -79.1172 219° Southwest 405 466 37,400 900 Climbing Jacksonville Center
11:06PM 34.2161 -79.1961 217° Southwest 399 459 38,000 240 Climbing Jacksonville Center
11:07PM 34.1331 -79.2750 218° Southwest 394 453 37,900  Descending Jacksonville Center
11:08PM 34.0478 -79.3586 219° Southwest 394 453 38,000  Climbing Jacksonville Center
11:09PM 33.9581 -79.4400 217° Southwest 388 447 38,000  Level Jacksonville Center
11:10PM 33.8747 -79.5183 218° Southwest 381 438 38,000 -60 Level Jacksonville Center
11:11PM 33.7872 -79.5992 218° Southwest 386 444 37,900 -60 Descending Jacksonville Center
11:12PM 33.7017 -79.6822 219° Southwest 392 451 37,900  Level Jacksonville Center
11:13PM 33.6181 -79.7600 218° Southwest 392 451 37,900  Level Jacksonville Center
11:14PM 33.5367 -79.8403 219° Southwest 392 451 38,000  Climbing Jacksonville Center
11:15PM 33.4489 -79.9228 218° Southwest 392 451 37,900 -60 Descending Jacksonville Center
11:16PM 33.3650 -80.0003 218° Southwest 387 445 37,900  Level Jacksonville Center
11:17PM 33.2792 -80.0825 219° Southwest 392 451 38,000  Climbing Jacksonville Center
11:18PM 33.1911 -80.1622 217° Southwest 392 451 38,000  Level Jacksonville Center
11:19PM 33.1133 -80.2339 218° Southwest 405 466 38,000  Level Jacksonville Center
11:20PM 33.0253 -80.3133 217° Southwest 405 466 38,000  Level Jacksonville Center
11:21PM 32.9353 -80.3953 217° Southwest 405 466 38,000  Level Jacksonville Center
11:22PM 32.8492 -80.4742 218° Southwest 405 466 38,000 -60 Level Jacksonville Center
11:23PM 32.7628 -80.5531 218° Southwest 399 459 37,900 -60 Descending Jacksonville Center
11:24PM 32.6767 -80.6319 218° Southwest 399 459 37,900  Level Jacksonville Center
11:25PM 32.5903 -80.7131 218° Southwest 399 459 38,000  Climbing Jacksonville Center
11:26PM 32.5019 -80.7914 217° Southwest 399 459 38,000 -60 Level Jacksonville Center
11:27PM 32.4178 -80.8722 219° Southwest 399 459 37,900  Descending Jacksonville Center
11:28PM 32.3189 -80.9578 216° Southwest 405 466 38,000  Climbing Jacksonville Center
11:29PM 32.2344 -81.0333 217° Southwest 400 460 38,000  Level Jacksonville Center
11:30PM 32.1519 -81.1086 218° Southwest 406 467 38,000 -60 Level Jacksonville Center
11:31PM 32.0631 -81.1864 217° Southwest 406 467 37,900  Descending Jacksonville Center
11:32PM 31.9786 -81.2639 218° Southwest 406 467 38,000  Climbing Jacksonville Center
11:33PM 31.8794 -81.3464 215° Southwest 406 467 38,000  Level Jacksonville Center
11:34PM 31.7886 -81.4236 216° Southwest 405 466 38,000  Level Jacksonville Center
11:35PM 31.6997 -81.5081 219° Southwest 405 466 38,000 -240 Level Jacksonville Center
11:36PM 31.6128 -81.5875 218° Southwest 405 466 37,600 -900 Descending Jacksonville Center
11:37PM 31.5342 -81.6567 217° Southwest 400 460 36,200 -840 Descending Jacksonville Center
11:38PM 31.4472 -81.7333 217° Southwest 400 460 36,000 -120 Descending Jacksonville Center
11:39PM 31.3603 -81.8100 217° Southwest 394 453 36,000 -60 Level Jacksonville Center
11:40PM 31.2711 -81.8911 218° Southwest 400 460 35,900  Descending Jacksonville Center
11:41PM 31.1839 -81.9650 216° Southwest 400 460 36,000  Climbing Jacksonville Center
11:42PM 31.0989 -82.0433 218° Southwest 400 460 36,000 -60 Level Jacksonville Center
11:43PM 31.0136 -82.1194 217° Southwest 400 460 35,900 -60 Descending Jacksonville Center
11:44PM 30.8908 -82.1614 196° South 400 460 35,900  Level Jacksonville Center
11:45PM 30.7781 -82.1769 187° South 405 466 36,000  Climbing Jacksonville Center
11:46PM 30.6656 -82.1947 188° South 415 478 36,000 -60 Level Jacksonville Center
11:47PM 30.5508 -82.2147 189° South 415 478 35,900 -60 Descending Jacksonville Center
11:48PM 30.4381 -82.2275 186° South 415 478 35,900  Level Jacksonville Center
11:49PM 30.3253 -82.2428 187° South 410 472 35,900 -240 Level Jacksonville Center
11:50PM 30.2106 -82.2603 188° South 410 472 35,500 -960 Descending Jacksonville Center
11:51PM 30.0958 -82.2781 188° South 410 472 34,000 -1,500 Descending Jacksonville Center
11:52PM 29.9811 -82.3003 190° South 410 472 32,500 -1,500 Descending Jacksonville Center
11:53PM 29.8728 -82.3153 187° South 410 472 31,000 -1,500 Descending Jacksonville Center
11:54PM 29.7642 -82.3328 188° South 405 466 29,500 -1,500 Descending Jacksonville Center
11:55PM 29.6619 -82.3453 186° South 391 450 28,000 -840 Descending Jacksonville Center
11:56PM 29.5597 -82.3531 184° South 379 436 27,900 -660 Descending Jacksonville Center
11:57PM 29.4594 -82.3392 173° South 368 423 26,700 -1,560 Descending Jacksonville Center
11:58PM 29.3592 -82.3303 176° South 363 418 24,800 -1,920 Descending Jacksonville Center
11:59PM 29.2672 -82.3214 175° South 357 411 22,900 -1,920 Descending Jacksonville Center
12:00AM 29.1711 -82.3075 173° South 351 404 21,000 -1,860 Descending Jacksonville Center
12:01AM 29.0772 -82.2961 174° South 351 404 19,200 -1,800 Descending Jacksonville Center
12:02AM 28.9853 -82.2872 175° South 346 398 17,400 -1,740 Descending Jacksonville Center
12:03AM 28.8933 -82.2736 173° South 346 398 15,800 -1,620 Descending Jacksonville Center
12:04AM 28.7333 -82.2667 178° South 315 362 12,900 -1,560 Descending Tampa TRACON
12:05AM 28.6500 -82.2500 170° South 305 351 11,500 -1,080 Descending Tampa TRACON
12:06AM 28.5833 -82.2500 180° South 298 343 11,000 -900 Descending Tampa TRACON
12:08AM 28.4667 -82.2500 180° South 287 330 9,500 -1,200 Descending Tampa TRACON
12:09AM 28.4000 -82.2500 180° South 276 318 8,300 -1,500 Descending Tampa TRACON
12:09AM 28.3333 -82.2667 192° South 273 314 7,000 -720 Descending Tampa TRACON
12:10AM 28.3000 -82.3500 246° West 283 326 7,000  Level Tampa TRACON
12:11AM 28.2833 -82.4167 254° West 282 325 7,000 -960 Level Tampa TRACON
12:12AM 28.2500 -82.5000 246° West 266 306 5,100 -1,860 Descending Tampa TRACON
12:13AM 28.1833 -82.5167 192° South 247 284 3,100 -1,260 Descending Tampa TRACON
12:14AM 28.1167 -82.5167 180° South 181 208 2,600 -720 Descending Tampa TRACON
12:16AM 28.0667 -82.5333 196° South 163 188 1,600 -840 Descending Tampa TRACON
12:16AM 28.0333 -82.5333 180° South 132 152 1,000 -660 Descending Tampa TRACON
12:17AM 28.0167 -82.5333 180° South 108 124 500 -600 Descending Tampa TRACON
12:19AM 27.9755 -82.5332 172° South  Level Estimated
12:26AM 27.9755 -82.5332 172° South  Level Estimated
12:27AM 27.9755 -82.5332 172° South  Level Estimated